Location: Solstice Park, West Seattle
(47.5363°N, 122.3905°W)
Time: 14:25:19
(UTC-07:00)

ISS - Pass Details

Date: 15 May 2021
Orbit: 417 x 422 km, 51.6° (Epoch: 22 June)

Event Time Altitude Azimuth Distance (km) Brightness Sun altitude
Rises 03:59:40 0° 292° (WNW) 2,374 -0.1 -12.9°
Reaches altitude 10° 04:01:50 10° 286° (WNW) 1,507 -1.2 -12.7°
Maximum altitude 04:05:03 43° 214° (SW) 607 -3.4 -12.3°
Drops below altitude 10° 04:08:16 10° 141° (SE) 1,501 -1.0 -11.9°
Sets 04:10:25 0° 135° (SE) 2,363 0.1 -11.7°
